[[{"header":{"parameterUnit":"m.s-1","parameterCategory":1,"la1":30.2991,"la2":30.254,"lo1":-89.0895,"lo2":-89.0444,"dy":0.0017,"dx":0.0017,"nx":28,"ny":28,"refTime":"2024-04-13T21:00:00:Z","depth":0,"parameterNumber":2,"parameterNumberName":"U-component_of_WINDS"},"data":[0,0,0,0,0,0,0,0,0,0,0,0,0,0,0,0,0,0,0,0,0,0,0,0,0,0,0,0,0,0,0,0,0,0,0,0,0,0,0,0,0,0,0,0,0,0,0,0,0,0,0,0,0,0,0,0,0,0,-1.5817,-1.5816,0,-1.5752,-1.5752,-1.5751,-1.5743,-1.5744,-1.5744,-1.5745,-1.5676,-1.5674,-1.5672,0,0,0,0,0,0,0,0,0,0,0,0,0,-1.5932,-1.593,-1.5817,-1.5816,-1.5816,-1.5753,-1.5752,-1.5751,-1.5743,-1.5744,-1.5745,-1.5745,-1.5677,-1.5674,-1.5671,0,0,0,0,0,0,0,0,0,0,0,0,0,-1.5876,-1.5929,-1.5817,-1.5804,-1.5802,-1.5753,-1.5752,-1.5751,-1.5743,-1.5744,-1.5745,-1.5746,-1.5678,-1.5675,-1.5671,-1.5629,0,0,-1.566,-1.5658,0,0,0,0,0,0,0,0,-1.5879,-1.5872,-1.5807,-1.5805,-1.5803,-1.5757,-1.5767,-1.571,-1.5743,-1.5765,-1.5745,-1.5746,-1.5702,-1.5697,-1.5682,-1.5626,-1.5623,-1.566,-1.5657,-1.5656,-1.5655,0,0,0,0,0,0,0,-1.5883,-1.5875,-1.5792,-1.5806,-1.5803,-1.5801,-1.5794,-1.5756,-1.5729,-1.5763,-1.5763,-1.5755,-1.5701,-1.5686,-1.5681,-1.5622,-1.566,-1.5656,-1.5654,-1.5653,-1.5527,-1.5526,0,0,0,0,0,0,-1.589,-1.5878,-1.5794,-1.579,-1.5844,-1.5798,-1.579,-1.5771,-1.573,-1.5724,-1.5755,-1.5755,-1.5692,-1.5685,-1.5678,-1.5625,-1.5656,-1.5652,-1.565,-1.5528,-1.5527,-1.5526,0,0,0,0,0,0,-1.5892,-1.5882,-1.5796,-1.5833,-1.5822,-1.5795,-1.5773,-1.5769,-1.5753,-1.5723,-1.5718,-1.5744,-1.5692,-1.5683,-1.5641,-1.5623,-1.5651,-1.5648,-1.553,-1.5528,-1.5526,-1.552,0,0,0,0,0,0,-1.5895,-1.5883,-1.5868,-1.5833,-1.582,-1.5761,-1.5772,-1.5767,-1.5747,-1.5748,-1.5711,-1.5706,-1.5692,-1.5647,-1.5638,-1.5618,-1.5645,-1.5531,-1.5529,-1.5527,-1.5522,-1.5518,-1.5515,0,0,0,0,0,-1.59,-1.5868,-1.5867,-1.5857,-1.58,-1.576,-1.5753,-1.5738,-1.5746,-1.573,-1.571,-1.5707,-1.5627,-1.5643,-1.5632,-1.5612,-1.5532,-1.553,-1.5527,-1.5523,-1.5519,-1.5516,0,0,0,0,0,0,-1.5901,-1.5864,-1.5862,-1.5818,-1.5793,-1.5759,-1.5738,-1.5734,-1.5704,-1.5706,-1.5688,-1.568,-1.5638,-1.5621,-1.5639,-1.5569,-1.558,-1.5575,-1.5581,-1.5577,-1.5574,-1.5578,-1.5642,0,0,0,0,0,-1.5896,-1.5867,-1.5836,-1.5801,-1.5788,-1.5765,-1.5747,-1.5738,-1.571,-1.5699,-1.5676,-1.5648,-1.5617,-1.5596,-1.5565,-1.552,-1.5511,-1.5501,-1.5498,-1.5495,-1.549,-1.5464,-1.5458,-1.5517,-1.5517,-1.5517,0,0,-1.5886,-1.5862,-1.5845,-1.58,-1.5779,-1.5748,-1.5756,-1.5723,-1.57,-1.5694,-1.5652,-1.5635,-1.5603,-1.5558,-1.5538,-1.5543,-1.5473,-1.5492,-1.549,-1.5487,-1.546,-1.5455,-1.545,-1.5515,-1.5516,-1.5516,0,0,-1.5851,-1.5831,-1.5798,-1.5777,-1.5745,-1.573,-1.5723,-1.5689,-1.5678,-1.5636,-1.563,-1.5602,-1.5549,-1.5525,-1.5507,-1.5463,-1.5459,-1.5454,-1.5436,-1.5411,-1.5406,-1.5402,-1.5384,-1.5378,-1.545,-1.545,-1.545,0,-1.5842,-1.5796,-1.5782,-1.575,-1.573,-1.5723,-1.569,-1.567,-1.5629,-1.5615,-1.5622,-1.5553,-1.5532,-1.5481,-1.5471,-1.5456,-1.5446,-1.5457,-1.5408,-1.5403,-1.5399,-1.5382,-1.5376,-1.5449,-1.5449,-1.5449,-1.5449,0,-1.5785,-1.5754,-1.5731,-1.5693,-1.567,-1.5638,-1.5618,-1.5597,-1.559,-1.5574,-1.5531,-1.5505,-1.5468,-1.5456,-1.5449,-1.5404,-1.5408,-1.5412,-1.5423,-1.5393,-1.5377,-1.5371,-1.5448,-1.5449,-1.5449,-1.5449,0,0,-1.5748,-1.5702,-1.5694,-1.5676,-1.564,-1.5615,-1.5582,-1.5546,-1.5528,-1.5501,-1.5471,-1.5426,-1.5428,-1.5407,-1.5397,-1.5375,-1.534,-1.5381,-1.538,-1.5372,-1.5287,-1.5283,-1.5276,-1.5338,-1.5337,-1.5336,-1.5289,0,-1.5708,-1.5648,-1.5635,-1.5583,-1.5552,-1.5546,-1.5517,-1.5491,-1.5476,-1.5447,-1.543,-1.5397,-1.5404,-1.5391,-1.5369,-1.5349,-1.5322,-1.5353,-1.5309,-1.5307,-1.5315,-1.5268,-1.5264,-1.5221,-1.5283,-1.5282,-1.5281,0,-1.5652,-1.5623,-1.5569,-1.5536,-1.5523,-1.5497,-1.5462,-1.5436,-1.5407,-1.5397,-1.5373,-1.5366,-1.5329,-1.5344,-1.5293,-1.5314,-1.5296,-1.5283,-1.5281,-1.5275,-1.5291,-1.5258,-1.5207,-1.52,-1.5272,-1.5272,-1.5273,0,-1.5628,-1.5576,-1.5536,-1.5521,-1.5482,-1.5464,-1.5447,-1.5418,-1.5398,-1.5368,-1.5354,-1.5321,-1.5302,-1.5276,-1.5259,-1.5272,-1.5209,-1.5223,-1.5198,-1.5199,-1.5183,-1.5184,-1.5126,-1.5175,-1.5176,-1.5176,-1.5176,0,-1.5583,-1.5549,-1.5524,-1.5499,-1.5461,-1.5446,-1.5408,-1.5391,-1.5366,-1.5337,-1.533,-1.5303,-1.5284,-1.5254,-1.5241,-1.52,-1.5192,-1.5182,-1.5178,-1.5181,-1.5182,-1.5167,-1.5168,-1.5174,-1.5174,-1.5175,-1.5175,0,-1.5548,-1.553,-1.5486,-1.5453,-1.5444,-1.5417,-1.5389,-1.5364,-1.5349,-1.5312,-1.5303,-1.5278,-1.5243,-1.5224,-1.518,-1.5171,-1.5124,-1.5123,-1.5134,-1.5132,-1.5108,-1.5109,-1.5036,-1.5025,-1.5084,-1.5083,-1.5083,0,-1.5519,-1.5493,-1.5458,-1.5438,-1.5421,-1.5389,-1.5368,-1.5352,-1.533,-1.5295,-1.5274,-1.5238,-1.5208,-1.5151,-1.5129,-1.5095,-1.5092,-1.5069,-1.5086,-1.509,-1.5089,-1.509,-1.5086,-1.5065,-1.5064,-1.5064,-1.5063,0,-1.5469,-1.5462,-1.5432,-1.5398,-1.5373,-1.5346,-1.5319,-1.5304,-1.5283,-1.5259,-1.5222,-1.5199,-1.5154,-1.5118,-1.5082,-1.5064,-1.5059,-1.5058,-1.505,-1.5052,-1.5058,-1.5052,-1.5123,-1.5059,-1.506,-1.506,-1.506,-1.5061,-1.5435,-1.5411,-1.5382,-1.5348,-1.5327,-1.5302,-1.5276,-1.5258,-1.5227,-1.5189,-1.5182,-1.5143,-1.5114,-1.5065,-1.5046,-1.5014,-1.5019,-1.5008,-1.5005,-1.5002,-1.5,-1.5065,-1.5008,-1.5008,-1.5008,-1.5008,-1.5009,0,-1.5383,-1.5364,-1.5334,-1.5296,-1.5269,-1.5269,-1.5239,-1.5217,-1.5182,-1.5156,-1.5127,-1.5084,-1.5049,-1.5025,-1.4989,-1.4968,-1.4965,-1.4959,-1.4959,-1.4955,-1.4999,-1.5008,-1.4962,-1.4962,-1.4962,-1.4962,-1.4962,-1.4962,-1.5353,-1.5311,-1.53,-1.5247,-1.5229,-1.519,-1.5173,-1.5149,-1.5128,-1.5081,-1.5052,-1.5036,-1.501,-1.4972,-1.494,-1.4933,-1.4919,-1.4913,-1.4906,-1.4947,-1.4952,-1.4956,-1.4965,-1.491,-1.491,-1.4864,-1.4864,-1.4863]},{"header":{"parameterUnit":"m.s-1","parameterCategory":1,"la1":30.2991,"la2":30.254,"lo1":-89.0895,"lo2":-89.0444,"dy":0.0017,"dx":0.0017,"nx":28,"ny":28,"refTime":"2024-04-13T21:00:00:Z","depth":0,"parameterNumber":3,"parameterNumberName":"V-component_of_WINDS"},"data":[0,0,0,0,0,0,0,0,0,0,0,0,0,0,0,0,0,0,0,0,0,0,0,0,0,0,0,0,0,0,0,0,0,0,0,0,0,0,0,0,0,0,0,0,0,0,0,0,0,0,0,0,0,0,0,0,0,0,4.1342,4.1343,0,4.1376,4.1376,4.1376,4.1347,4.1346,4.1345,4.1343,4.1375,4.1377,4.1379,0,0,0,0,0,0,0,0,0,0,0,0,0,4.1249,4.1251,4.1342,4.1343,4.1343,4.1376,4.1376,4.1376,4.1347,4.1346,4.1344,4.1343,4.1374,4.1376,4.1379,0,0,0,0,0,0,0,0,0,0,0,0,0,4.1287,4.1252,4.1342,4.1332,4.1332,4.1375,4.1376,4.1377,4.1347,4.1346,4.1344,4.1342,4.1373,4.1376,4.1379,4.1433,0,0,4.1388,4.1389,0,0,0,0,0,0,0,0,4.1285,4.129,4.1333,4.1333,4.1333,4.1355,4.1355,4.1395,4.1348,4.1341,4.1343,4.1341,4.137,4.1373,4.1383,4.1435,4.1436,4.1388,4.139,4.1391,4.1392,0,0,0,0,0,0,0,4.1282,4.1289,4.1355,4.1334,4.1334,4.1325,4.1328,4.1362,4.1365,4.1342,4.134,4.1344,4.1369,4.138,4.1383,4.1436,4.1388,4.1391,4.1393,4.1394,4.1533,4.1535,0,0,0,0,0,0,4.1281,4.1287,4.1354,4.1356,4.1304,4.1328,4.1332,4.135,4.1365,4.1365,4.1346,4.1343,4.1376,4.138,4.1384,4.1448,4.1391,4.1394,4.1396,4.1531,4.1533,4.1535,0,0,0,0,0,0,4.1279,4.1287,4.1353,4.1321,4.1329,4.1332,4.1352,4.1351,4.1363,4.1368,4.1368,4.1357,4.1375,4.138,4.1421,4.1449,4.1395,4.1398,4.1529,4.1532,4.1534,4.1576,0,0,0,0,0,0,4.1277,4.1287,4.1308,4.1322,4.1331,4.139,4.1354,4.1353,4.1368,4.1364,4.1378,4.1379,4.1374,4.1417,4.1424,4.1452,4.14,4.1526,4.153,4.1534,4.1573,4.158,4.1587,0,0,0,0,0,4.1273,4.1319,4.131,4.1318,4.1358,4.1392,4.1397,4.1391,4.137,4.1391,4.1394,4.1378,4.1445,4.1421,4.1429,4.1458,4.1524,4.1529,4.1533,4.1569,4.1579,4.1587,0,0,0,0,0,0,4.1308,4.132,4.131,4.1361,4.1376,4.1387,4.1414,4.1402,4.1422,4.1418,4.1409,4.1412,4.1455,4.1461,4.1435,4.1511,4.1481,4.1487,4.1506,4.1515,4.1522,4.152,4.1403,0,0,0,0,0,4.1321,4.1349,4.1358,4.1402,4.141,4.1411,4.1425,4.142,4.1434,4.144,4.1446,4.146,4.1483,4.1499,4.1522,4.1573,4.1575,4.1597,4.1604,4.161,4.1615,4.1642,4.1652,4.155,4.155,4.155,0,0,4.1349,4.136,4.1378,4.1409,4.142,4.1448,4.1416,4.1447,4.1468,4.1444,4.1484,4.1488,4.1503,4.1549,4.157,4.1555,4.1644,4.1615,4.162,4.1622,4.1648,4.1657,4.1666,4.1553,4.1552,4.1552,0,0,4.1415,4.1426,4.1464,4.1475,4.1492,4.1492,4.1501,4.1513,4.1516,4.1555,4.1538,4.1562,4.1603,4.1614,4.1625,4.1694,4.1679,4.1701,4.1739,4.1766,4.1774,4.1781,4.1805,4.1814,4.1707,4.1707,4.1707,0,4.1448,4.1491,4.1484,4.1517,4.1531,4.1511,4.1549,4.1559,4.1582,4.1592,4.1575,4.1626,4.1635,4.1683,4.17,4.1709,4.1718,4.17,4.1773,4.178,4.1787,4.1809,4.1819,4.1709,4.1709,4.1709,4.1708,0,4.153,4.1559,4.1588,4.1611,4.1628,4.1663,4.166,4.1678,4.167,4.1672,4.1711,4.1721,4.1744,4.1755,4.1748,4.1802,4.1792,4.1775,4.1744,4.1799,4.182,4.1829,4.1713,4.1712,4.1711,4.1711,0,0,4.1619,4.1638,4.1648,4.1658,4.1675,4.1697,4.173,4.1754,4.1769,4.1785,4.1812,4.1847,4.183,4.1843,4.1836,4.1859,4.1913,4.1838,4.1839,4.1852,4.1972,4.1986,4.1996,4.1903,4.1904,4.1906,4.1971,0,4.1685,4.1744,4.1739,4.1794,4.1821,4.1802,4.1831,4.1843,4.1845,4.1867,4.1868,4.1894,4.187,4.1877,4.1899,4.1902,4.1937,4.1897,4.1927,4.1928,4.1924,4.2007,4.2022,4.2083,4.1979,4.1981,4.1982,0,4.1771,4.1791,4.1849,4.1861,4.1872,4.1898,4.1918,4.194,4.1953,4.1953,4.1966,4.1956,4.1988,4.1957,4.2,4.1973,4.1985,4.1988,4.199,4.1993,4.1958,4.2012,4.2102,4.2111,4.1995,4.1994,4.1993,0,4.183,4.1871,4.1911,4.192,4.1935,4.1953,4.196,4.1971,4.1986,4.2003,4.2012,4.2033,4.2045,4.206,4.2055,4.2033,4.21,4.2068,4.2099,4.21,4.2114,4.2114,4.2208,4.2122,4.2122,4.2122,4.2122,0,4.1905,4.1942,4.1938,4.1962,4.2002,4.1994,4.2033,4.2037,4.2048,4.2072,4.2056,4.2079,4.2071,4.2093,4.2089,4.2125,4.213,4.213,4.2128,4.2132,4.2132,4.2139,4.2135,4.2124,4.2124,4.2123,4.2123,0,4.1978,4.1977,4.202,4.203,4.2033,4.2062,4.207,4.2092,4.2092,4.2123,4.213,4.2129,4.2154,4.2151,4.2178,4.2175,4.2221,4.2214,4.2216,4.2215,4.2246,4.2243,4.2348,4.2361,4.2268,4.2269,4.2269,0,4.2027,4.2054,4.2067,4.2082,4.2091,4.2116,4.213,4.2123,4.2139,4.2155,4.2175,4.2199,4.2217,4.2258,4.226,4.228,4.2274,4.2309,4.2277,4.2279,4.2274,4.2273,4.2275,4.2316,4.2317,4.2318,4.2319,0,4.2112,4.211,4.2132,4.2153,4.2171,4.2188,4.2202,4.2216,4.221,4.2228,4.2253,4.2268,4.2296,4.2319,4.2338,4.2344,4.233,4.2329,4.2337,4.234,4.2341,4.234,4.2234,4.2326,4.2326,4.2325,4.2325,4.2324,4.2174,4.2197,4.221,4.2234,4.2245,4.2259,4.228,4.2283,4.2304,4.2327,4.2321,4.235,4.2361,4.2385,4.2393,4.2414,4.2401,4.2413,4.2416,4.2419,4.2423,4.2337,4.2418,4.2418,4.2417,4.2417,4.2417,0,4.2259,4.2265,4.2288,4.2309,4.2328,4.2314,4.2329,4.2346,4.2371,4.2383,4.2402,4.243,4.2453,4.2456,4.2477,4.2493,4.2487,4.2499,4.2498,4.2499,4.2434,4.2425,4.2503,4.2503,4.2503,4.2503,4.2503,4.2503,4.2305,4.2343,4.2342,4.2385,4.2391,4.242,4.2429,4.2442,4.2451,4.2484,4.2503,4.2505,4.2513,4.2534,4.2553,4.2553,4.2561,4.2575,4.2573,4.2512,4.2504,4.2496,4.2487,4.2577,4.2577,4.2637,4.2637,4.2638]}]]